Regional Weather Roundup
Issued by NWS Dallas/Fort Worth, TX

Current Version |  Previous Version |  Text Only |  Print | Product List |  Glossary On
Versions: 1 2 3 4 5 6 7 8 9 10 11 12 13 14 15 16 17 18 19 20 21 22 23 24 25 26 27 28 29 30 31 32 33 34 35 36 37 38 39 40 41 42 43 44 45 46 47 48 49 50
434
ASUS44 KFWD 300115
RWRFWD
NORTH TEXAS HOURLY WEATHER ROUNDUP
NATIONAL WEATHER SERVICE FORT WORTH TX
800 PM CDT WED MAY 29 2024

NOTE: "FAIR" INDICATES FEW OR NO CLOUDS BELOW 12,000 FEET WITH NO
SIGNIFICANT WEATHER AND/OR OBSTRUCTIONS TO VISIBILITY.

TXZ118-119-300200-
DALLAS/FORT WORTH METROPLEX

CITY           SKY/WX    TMP DP  RH WIND       PRES   REMARKS
DFW AIRPORT    PTCLDY    83  67  58 SE8       29.96F
DALLAS LOVE    PTCLDY    84  65  52 E5        29.97S
FTW MEACHAM    CLEAR     81  65  58 SE7       29.96F
DAL-EXECUTIVE  CLEAR     83  68  60 E7        29.97S
FTW-ALLIANCE   PTCLDY    83  66  56 SE9       29.97S
FTW-NAS-JRB    PTCLDY    84  64  50 SE7       29.97S
FTW-SPINKS     CLEAR     82  68  62 SE3       29.98F
ARLINGTON      CLEAR     84  67  56 E6        29.97F
ADDISON        PTCLDY    84  64  51 SE7       30.00
MESQUITE       CLEAR     84  68  58 S3        29.98F
LANCASTER      CLEAR     82  68  61 E3        29.98F
$$

TXZ091>094-102>105-117-120-121-131>134-300200-
NORTH CENTRAL TEXAS

CITY           SKY/WX    TMP DP  RH WIND       PRES   REMARKS
SHRMAN/DENISON PTCLDY    82  67  60 E6        30.02S
GAINESVILLE    PTCLDY    80  66  62 SE7       30.01S
BOWIE          PTCLDY    80  67  64 E6        30.00S
BRIDGEPORT     CLEAR     81  65  57 E6        29.99F
DECATUR        PTCLDY    82  66  58 E3        29.99F
DENTON         CLEAR     84  66  54 E7        29.98S
MCKINNEY       CLEAR     81  67  62 E5        29.99S
BONHAM         CLEAR     80  68  68 E8        30.01S
GREENVILLE     PTCLDY    79  73  80 E5        29.99F
ROCKWALL       PTCLDY    81  68  63 E6        29.99S
TERRELL        PTCLDY    83  67  58 E5        29.98F
WAXAHACHIE     CLEAR     82  68  62 SE3       29.99S
CLEBURNE       CLEAR     81  70  69 SE6       29.99S
$$

TXZ083>090-098>101-113>116-127>130-139>142-154-155-300200-
WESTERN NORTH TEXAS

CITY           SKY/WX    TMP DP  RH WIND       PRES   REMARKS
WICHITA FALLS  CLEAR     83  65  54 SE15      29.96F
WF-KICKAPOO    CLEAR     83  65  52 SE10G20   29.98S
VERNON         CLEAR     87  60  41 SE14      29.96F
ABILENE        CLEAR     83  65  54 E16       29.99S
ABILENE-DYESS  PTCLDY    83  65  52 E13       29.94
GRAHAM         CLEAR     81  69  65 E5        29.96S
BRECKENRIDGE   CLEAR     83  66  56 MISG      29.98S HAZE
EASTLAND       CLEAR     80  66  61 SE6       29.99S
RANGER         CLEAR     80  34  19 SE7       30.00S
MINERAL WELLS    N/A    N/A N/A N/A MISG      29.96S
STEPHENVILLE   CLEAR     81  67  63 SE6       30.02S
COMANCHE       CLEAR     83  66  56 SE8       29.99S
BROWNWOOD      CLEAR     81  66  61 E10       29.98S
COLEMAN        CLEAR     82  66  58 MISG      29.99S
BRADY          CLEAR     82  66  57 SE7G13    29.97F
SAN SABA       CLEAR     82  68  61 E10       29.99R
$$

TXZ143>147-156>162-174-175-300200-
CENTRAL TEXAS

CITY           SKY/WX    TMP DP  RH WIND       PRES   REMARKS
WACO           CLEAR     83  70  64 E5        29.96F
WACO-TSTC      CLEAR     84  68  58 E3        29.96F
WACO-MCGREGOR    N/A     84  71  65 NE3       29.97F
HILLSBORO      CLEAR     85  69  58 SE3       29.97F
CORSICANA      CLEAR     84  72  67 E3        29.98S
MEXIA          CLEAR     84  71  65 MISG      29.97S
HEARNE         CLEAR     87  72  59 CALM      29.97S HX  93
CAMERON        CLEAR     86  71  61 CALM      29.96R HX  91
TEMPLE         CLEAR     83  69  62 MISG      29.97S
KILLEEN        NOT AVBL
KILLEEN-SKYLRK CLEAR     84  69  60 E7        29.97F
GATESVILLE     CLEAR     84  72  65 E6        29.97F
HAMILTON       CLEAR     82  67  61 CALM      29.99F
$$

TXZ095>097-106>112-122>126-135>138-148>153-164>167-300200-
EAST TEXAS

CITY           SKY/WX    TMP DP  RH WIND       PRES   REMARKS
PARIS          PTCLDY    75  72  88 E6        30.02S
SULPHUR SPRNGS MOCLDY    78  69  73 E6        30.03S
MOUNT PLEASANT CLEAR    N/A N/A N/A E3        30.02R
GILMER         CLEAR     78  69  74 NE3       30.01R
MINEOLA        PTCLDY    79  72  78 CALM      30.00S
TYLER          CLEAR     82  70  66 SE7       29.99S
LONGVIEW       CLEAR     79  71  76 E5        30.00R
MARSHALL       CLEAR     77  75  93 SE3       30.00R
ATHENS         PTCLDY    81  70  69 MISG      29.97S
PALESTINE      CLEAR    N/A N/A N/A E5        29.96S
JACKSONVILLE   CLEAR     79  70  75 E3        30.03R
HENDERSON      CLEAR     84  70  62 E3        30.02R
CENTER         CLEAR     79  70  73 E3        30.02S
LUFKIN         PTCLDY    81  75  82 E6        29.99R
$$

SUPPLEMENTAL OBSERVATIONS (NWS FORT WORTH AREA)

CITY           SKY/WX    TMP DP  RH WIND       PRES   REMARKS
CADDO GRASSLND   N/A     79  70  73 CALM        N/A
LBJ GRASSLAND    N/A     81  64  57 E5          N/A
POSSUM KINGDOM   N/A     81  66  61 SE6         N/A
COMANCHE         N/A     81  68  65 SE7         N/A
MCGREGOR         N/A     82  68  61 NE7         N/A
LAKE LIMESTONE   N/A     82  72  69 E3          N/A
PALESTINE        N/A     81  73  78 E1          N/A
$$

SUPPLEMENTAL OBSERVATIONS (NWS NORMAN AREA)

CITY           SKY/WX    TMP DP  RH WIND       PRES   REMARKS
GOODLETT         N/A     85  59  41 E15       29.96
ODELL            N/A     84  64  51 E12       29.97F
CROWELL          N/A     85  60  42 SE12      29.97S
KNOX CITY        N/A     84  63  48 SE15      29.97
SEYMOUR          N/A     83  64  52 E12       29.96S
MILLERS CREEK    N/A     82  64  54 SE12        N/A
$$

SUPPLEMENTAL OBSERVATIONS (NWS SAN ANGELO AREA)

CITY           SKY/WX    TMP DP  RH WIND       PRES   REMARKS
WEINERT          N/A     83  62  49 SE13      29.98S
HASKELL          N/A     82  65  57 SE10      29.97
THROCKMORTON     N/A     82  66  57 SE9       29.98
STAMFORD         N/A     82  68  63 SE10      29.99
CLYDE            N/A     80  67  65 SE7       30.03S
IVIE RESERVOIR   N/A     84  66  54 E15         N/A
COLORADO BEND    N/A     82  66  57 E8G17       N/A
$$

SUPPLEMENTAL OBSERVATIONS (NWS SHREVEPORT AREA)

CITY           SKY/WX    TMP DP  RH WIND       PRES   REMARKS
TEXARKANA        N/A     75  70  83 CALM        N/A
CADDO LAKE       N/A     75  70  83 CALM        N/A
LUFKIN           N/A     81  73  78 MISG        N/A
N SABINE NF      N/A     75  70  83 MISG        N/A
$$

SUPPLEMENTAL OBSERVATIONS ARE A COLLECTION OF AUTOMATED INSTRUMENTS
THAT ARE MAINTAINED BY A VARIETY OF FEDERAL AND STATE AGENCIES.
CERTAIN ELEMENTS...SUCH AS HUMIDITY VALUES AND SUSTAINED WIND
SPEEDS...MAY BE APPROXIMATED.